DM5RC Weather Reports


Display with metric or nautical units.
time (UTC)temp
F
wind
direction
speed
MPH
gust
MPH
rain 1hr
in
rain 24hr
in
rain mn
in
humidity
%
barometer
mb
20260507122341 49 40 6.0 12.0 0.00 1.73 0.35 89 1013.2
20260507121822 50 348 3.0 10.0 0.00 1.73 0.35 91 1013.1
20260507121324 49 57 3.0 10.0 0.00 1.73 0.35 90 1013.1
20260507120827 49 14 5.0 11.0 0.00 1.73 0.35 90 1013.1
20260507120314 48 59 6.0 11.0 0.00 1.73 0.35 90 1013.0
20260507115836 48 48 6.0 10.0 0.00 1.73 0.35 91 1013.0
20260507115321 48 43 5.0 10.0 0.00 1.73 0.35 91 1013.0
20260507114826 48 56 6.0 10.0 0.00 1.73 0.35 91 1013.1
20260507114313 48 295 4.0 10.0 0.00 1.73 0.35 91 1013.0
20260507113816 48 46 4.0 10.0 0.00 1.73 0.35 91 1013.0
20260507113335 48 349 5.0 9.0 0.00 1.73 0.35 91 1012.9
20260507112815 48 53 4.0 9.0 0.00 1.73 0.35 92 1012.8
20260507112320 48 57 5.0 12.0 0.00 1.73 0.35 92 1012.8
20260507111825 48 45 7.0 12.0 0.00 1.73 0.35 92 1012.8
20260507111314 48 65 5.0 11.0 0.04 1.73 0.35 93 1012.9
20260507110816 48 70 5.0 11.0 0.08 1.73 0.35 94 1012.8
20260507110335 48 27 6.0 11.0 0.12 1.73 0.35 94 1012.7
20260507105817 48 341 5.0 11.0 0.20 1.73 0.35 94 1012.8
20260507105318 48 44 5.0 11.0 0.24 1.73 0.35 94 1012.7
20260507104818 48 43 4.0 9.0 0.28 1.73 0.35 95 1012.7
20260507104339 48 58 5.0 9.0 0.31 1.73 0.35 95 1012.7
20260507103818 48 79 4.0 10.0 0.31 1.73 0.35 95 1012.6
20260507103319 48 319 4.0 10.0 0.35 1.73 0.35 95 1012.6
20260507102824 48 37 6.0 11.0 0.39 1.73 0.35 95 1012.5
20260507102339 48 52 4.0 11.0 0.43 1.73 0.35 95 1012.5
20260507101822 48 16 4.0 7.0 0.47 1.73 0.35 95 1012.6
20260507101324 47 75 4.0 8.0 0.43 1.69 0.34 95 1012.6
20260507100828 47 58 5.0 8.0 0.43 1.65 0.33 95 1012.5
20260507100349 47 53 3.0 7.0 0.43 1.61 0.32 95 1012.5
20260507095829 47 352 3.0 7.0 0.43 1.54 0.31 95 1012.5
20260507095330 47 41 3.0 7.0 0.43 1.50 0.30 95 1012.4
20260507094833 47 33 3.0 7.0 0.47 1.46 0.29 94 1012.4
20260507094315 47 38 4.0 8.0 0.47 1.42 0.28 95 1012.4
20260507093817 47 54 5.0 10.0 0.47 1.38 0.28 94 1012.3
20260507093316 47 40 4.0 10.0 0.47 1.34 0.27 95 1012.2
20260507092817 46 65 3.0 10.0 0.47 1.34 0.27 94 1012.1
20260507092316 46 32 5.0 10.0 0.43 1.30 0.26 94 1012.1
20260507091324 47 63 3.0 9.0 0.43 1.26 0.25 94 1012.1
20260507090826 46 34 3.0 8.0 0.39 1.22 0.24 94 1012.1
20260507090328 47 57 4.0 8.0 0.35 1.18 0.24 94 1012.0
20260507085831 46 353 4.0 11.0 0.28 1.10 0.22 94 1011.9
20260507085332 46 30 6.0 11.0 0.20 1.02 0.20 94 1011.8
20260507084835 46 355 4.0 9.0 0.16 0.98 0.20 94 1011.8
20260507084336 46 27 3.0 9.0 0.12 0.94 0.19 94 1011.8
20260507083817 46 34 4.0 9.0 0.08 0.91 0.18 94 1011.7
20260507083319 46 60 4.0 11.0 0.04 0.87 0.17 93 1011.6
20260507082820 46 18 5.0 11.0 0.04 0.87 0.17 93 1011.6
20260507082321 47 43 5.0 10.0 0.04 0.87 0.17 94 1011.5
20260507081844 47 15 5.0 11.0 0.00 0.83 0.17 93 1011.4
20260507081326 46 43 4.0 11.0 0.00 0.83 0.17 93 1011.3
20260507080830 47 76 5.0 9.0 0.00 0.83 0.17 93 1011.2
20260507080314 47 42 4.0 13.0 0.00 0.83 0.17 94 1011.2
20260507075816 47 6 6.0 13.0 0.00 0.83 0.17 93 1011.2
20260507075320 46 73 6.0 11.0 0.00 0.83 0.17 93 1011.1
20260507074822 46 73 7.0 12.0 0.00 0.83 0.17 93 1011.1
20260507074325 47 58 4.0 9.0 0.00 0.83 0.17 94 1011.1
20260507073845 47 33 4.0 9.0 0.00 0.83 0.17 94 1011.0
20260507073324 46 52 4.0 9.0 0.04 0.83 0.17 94 1011.0
20260507072847 46 47 5.0 10.0 0.04 0.83 0.17 94 1011.0
20260507072323 46 56 5.0 10.0 0.04 0.83 0.17 94 1010.9
20260507071818 46 6 5.0 10.0 0.04 0.83 0.17 94 1010.8
20260507071321 46 48 4.0 9.0 0.04 0.83 0.17 94 1010.7
20260507070820 46 50 5.0 10.0 0.04 0.83 0.17 94 1010.6
20260507070319 46 39 4.0 10.0 0.04 0.83 0.17 94 1010.6
20260507065820 46 60 5.0 12.0 0.04 0.83 0.17 94 1010.6
20260507065318 46 72 6.0 12.0 0.04 0.83 0.17 95 1010.6
20260507064819 46 39 5.0 12.0 0.04 0.83 0.17 95 1010.6
20260507064319 46 14 5.0 12.0 0.04 0.83 0.17 95 1010.5
20260507063822 46 53 4.0 10.0 0.00 0.79 0.16 95 1010.4
20260507063325 46 53 4.0 10.0 0.00 0.79 0.16 95 1010.4
20260507062826 46 39 5.0 8.0 0.00 0.79 0.16 95 1010.4
20260507062328 46 20 5.0 8.0 0.00 0.79 0.16 95 1010.4
20260507061847 46 39 3.0 6.0 0.00 0.79 0.16 95 1010.3
20260507061325 46 51 4.0 8.0 0.00 0.79 0.16 95 1010.3
20260507060847 46 360 3.0 7.0 0.00 0.79 0.16 95 1010.2
20260507055831 46 344 6.0 11.0 0.00 0.79 0.16 95 1010.1
20260507055314 46 11 6.0 11.0 0.00 0.79 0.16 95 1010.0
20260507054815 46 21 4.0 10.0 0.00 0.79 0.16 95 1009.9
20260507054316 46 18 4.0 11.0 0.04 0.79 0.16 95 1009.9
20260507053819 46 24 5.0 11.0 0.04 0.79 0.16 95 1009.8
20260507053322 46 25 3.0 8.0 0.04 0.79 0.16 95 1009.8
20260507052911 46 56 3.0 8.0 0.04 0.79 0.16 95 1009.8
20260507052349 46 345 4.0 8.0 0.04 0.79 0.16 95 1009.8
20260507051830 46 27 3.0 8.0 0.04 0.79 0.16 95 1009.7
20260507051332 46 30 3.0 8.0 0.04 0.79 0.16 95 1009.7
20260507050814 46 43 4.0 8.0 0.08 0.79 0.16 95 1009.6
20260507050338 46 52 4.0 7.0 0.08 0.79 0.16 95 1009.6
20260507045820 46 49 3.0 7.0 0.08 0.83 0.16 95 1009.5
20260507045321 46 356 3.0 9.0 0.08 0.83 0.16 95 1009.4
20260507044841 46 16 3.0 9.0 0.08 0.83 0.16 95 1009.4
20260507044321 46 61 4.0 10.0 0.04 0.79 0.15 95 1009.2
20260507043822 46 44 5.0 11.0 0.08 0.79 0.15 95 1009.1
20260507043324 46 32 4.0 11.0 0.08 0.79 0.15 95 1009.0
20260507042824 46 8 3.0 10.0 0.08 0.79 0.15 95 1008.9
20260507042320 47 53 5.0 10.0 0.12 0.79 0.15 95 1008.9
20260507041820 46 40 3.0 10.0 0.16 0.79 0.15 95 1009.0
20260507041321 47 49 2.0 8.0 0.16 0.79 0.15 95 1008.9
20260507040822 47 120 4.0 10.0 0.16 0.75 0.14 95 1008.7
20260507040322 47 25 4.0 12.0 0.20 0.75 0.14 95 1008.6
20260507035822 46 40 4.0 12.0 0.24 0.75 0.14 95 1008.6
20260507035322 46 38 5.0 12.0 0.24 0.75 0.14 95 1008.5
20260507034823 46 19 6.0 12.0 0.28 0.75 0.14 95 1008.5
20260507034324 47 33 5.0 12.0 0.28 0.75 0.14 95 1008.5
20260507033825 47 52 4.0 10.0 0.24 0.71 0.13 95 1008.4
20260507033327 47 18 3.0 10.0 0.28 0.71 0.13 95 1008.3
20260507032832 47 20 4.0 10.0 0.28 0.71 0.13 95 1008.4
20260507032315 47 45 5.0 11.0 0.28 0.67 0.13 95 1008.3
20260507031837 47 46 7.0 11.0 0.28 0.63 0.12 95 1008.3
20260507031319 47 32 3.0 12.0 0.31 0.63 0.12 95 1008.3
20260507030822 47 39 6.0 13.0 0.31 0.59 0.11 95 1008.2
20260507030324 47 22 5.0 12.0 0.28 0.55 0.10 95 1008.2
20260507025827 48 52 7.0 13.0 0.28 0.51 0.09 94 1008.2
20260507025330 48 32 5.0 13.0 0.28 0.51 0.09 94 1008.2
20260507024831 48 345 5.0 9.0 0.28 0.47 0.09 95 1008.1
20260507024331 48 53 4.0 10.0 0.31 0.47 0.09 94 1008.0
20260507023813 48 44 5.0 10.0 0.28 0.43 0.08 94 1008.1
20260507023315 48 32 6.0 12.0 0.31 0.43 0.08 94 1008.1
20260507022838 48 35 5.0 12.0 0.35 0.43 0.08 94 1008.0
20260507022317 48 31 6.0 11.0 0.31 0.39 0.07 94 1008.0
20260507021817 48 35 6.0 10.0 0.31 0.35 0.06 94 1008.1
20260507021318 48 51 4.0 8.0 0.28 0.31 0.06 94 1008.2
20260507020819 48 54 5.0 8.0 0.24 0.28 0.05 93 1008.2
20260507020321 48 25 3.0 8.0 0.24 0.28 0.05 93 1008.1
20260507015821 48 50 4.0 10.0 0.20 0.31 0.04 93 1008.2
20260507015321 48 33 5.0 9.0 0.20 0.31 0.04 93 1008.3
20260507014826 48 56 6.0 9.0 0.16 0.28 0.03 93 1008.2
20260507014329 48 58 3.0 7.0 0.12 0.24 0.02 93 1008.2
20260507013832 48 47 3.0 7.0 0.12 0.24 0.02 93 1008.2
20260507013315 48 48 4.0 8.0 0.08 0.20 0.02 92 1008.2
20260507012815 48 25 5.0 8.0 0.04 0.16 0.01 92 1008.2
20260507012314 48 51 2.0 8.0 0.04 0.16 0.01 92 1008.3
20260507011835 48 44 3.0 8.0 0.00 0.12 0.00 92 1008.2
20260507011313 48 56 4.0 7.0 0.00 0.12 0.00 92 1008.2
20260507010833 48 16 4.0 8.0 0.00 0.12 0.00 91 1008.2
20260507010334 48 34 4.0 8.0 0.00 0.12 0.00 91 1008.1
20260507005817 48 73 4.0 8.0 0.00 0.87 0.00 91 1008.0
20260507005319 48 49 4.0 11.0 0.00 0.87 0.00 91 1008.0
20260507004821 48 48 5.0 11.0 0.00 0.87 0.00 91 1007.9
20260507004324 48 58 6.0 9.0 0.00 0.87 0.00 91 1007.8
20260507003827 49 32 3.0 8.0 0.00 0.87 0.00 91 1007.9
20260507003329 49 42 4.0 9.0 0.00 0.87 0.00 91 1007.9
20260507002830 49 15 4.0 8.0 0.00 0.87 0.00 91 1007.8
20260507002314 49 141 4.0 11.0 0.00 0.87 0.00 90 1007.8
20260507001818 49 64 5.0 11.0 0.00 0.87 0.00 90 1007.8
20260507001322 49 61 6.0 10.0 0.00 0.87 0.00 90 1007.8
20260507000824 49 28 4.0 12.0 0.00 0.87 0.00 90 1007.7
20260507000345 49 355 5.0 12.0 0.00 0.87 0.00 90 1007.7
20260506235826 49 19 4.0 9.0 0.00 1.93 0.00 90 1007.6
20260506235328 49 333 5.0 9.0 0.00 1.93 0.00 90 1007.7
20260506234830 49 47 3.0 8.0 0.00 1.93 0.00 90 1007.7
20260506234313 49 27 4.0 8.0 0.00 1.93 0.00 90 1007.5
20260506233815 49 71 3.0 12.0 0.00 1.93 0.00 90 1007.7
20260506233317 49 46 5.0 12.0 0.00 1.93 0.00 90 1007.6
20260506232838 49 338 5.0 10.0 0.00 1.93 0.00 90 1007.7
20260506232337 49 56 5.0 12.0 0.00 1.93 0.00 90 1007.6
20260506231816 49 352 5.0 13.0 0.00 1.93 0.00 90 1007.6
20260506231336 49 15 6.0 13.0 0.00 1.93 0.00 90 1007.5
20260506230853 50 57 4.0 10.0 0.00 1.93 0.00 90 1007.6
20260506230351 50 4 5.0 10.0 0.00 1.93 0.00 90 1007.6
20260506225830 50 14 5.0 10.0 0.00 2.95 0.00 90 1007.5
20260506224838 50 38 5.0 10.0 0.00 2.95 0.00 90 1007.3
20260506224318 50 8 4.0 10.0 0.00 2.95 0.00 90 1007.4
20260506223819 50 6 6.0 10.0 0.00 2.95 0.00 89 1007.4
20260506223319 50 49 5.0 13.0 0.00 2.95 0.00 89 1007.4
20260506222820 50 68 5.0 13.0 0.00 2.95 0.00 89 1007.4
20260506222320 50 18 4.0 9.0 0.00 2.95 0.00 89 1007.5
20260506221840 50 54 3.0 11.0 0.00 2.95 0.00 89 1007.4
20260506221318 50 28 5.0 11.0 0.00 2.95 0.00 89 1007.3
20260506220820 51 44 4.0 12.0 0.00 2.95 0.00 89 1007.1
20260506220406 51 20 5.0 12.0 0.00 2.95 0.00 89 1007.1
20260506215822 51 53 4.0 13.0 0.00 3.03 0.59 89 1007.0
20260506215345 51 43 6.0 13.0 0.00 3.03 0.59 89 1006.9
20260506214823 51 35 6.0 13.0 0.00 3.03 0.59 89 1006.9
20260506214328 51 47 4.0 10.0 0.00 3.03 0.59 89 1006.8
20260506213813 51 30 6.0 10.0 0.00 3.03 0.59 89 1006.9
20260506213336 51 51 4.0 9.0 0.00 3.03 0.59 89 1006.9
20260506212819 51 33 3.0 14.0 0.00 3.03 0.59 89 1006.8
20260506212342 51 41 7.0 14.0 0.00 3.03 0.59 89 1006.9
20260506211824 52 36 4.0 11.0 0.00 3.03 0.59 89 1006.8
20260506211324 52 4 5.0 11.0 0.00 3.03 0.59 89 1006.9
20260506210824 52 58 5.0 10.0 0.00 3.03 0.59 89 1006.7
20260506210324 52 39 6.0 10.0 0.00 3.03 0.59 89 1006.6
20260506205825 52 61 3.0 10.0 0.00 3.03 0.59 89 1006.7
20260506205326 52 42 5.0 11.0 0.00 3.03 0.59 89 1006.7
20260506204827 52 28 3.0 11.0 0.00 3.03 0.59 89 1006.7
20260506204328 52 20 5.0 10.0 0.00 3.03 0.59 89 1006.7
20260506203829 52 56 5.0 10.0 0.00 3.03 0.59 89 1006.7
20260506203328 52 55 4.0 11.0 0.00 3.03 0.59 89 1006.7
20260506202829 52 42 5.0 11.0 0.00 3.03 0.59 89 1006.8
20260506202331 52 23 5.0 13.0 0.00 3.03 0.59 88 1006.7
20260506201814 52 45 6.0 13.0 0.00 3.03 0.59 88 1006.9
20260506201316 53 359 3.0 11.0 0.00 3.03 0.59 89 1006.9
20260506200837 53 15 5.0 11.0 0.00 3.03 0.59 89 1006.8
20260506200315 53 65 5.0 11.0 0.00 3.03 0.59 89 1006.7
20260506195835 53 50 4.0 11.0 0.00 3.03 0.59 89 1006.5
20260506195312 53 49 5.0 10.0 0.00 3.03 0.59 89 1006.4
20260506194815 53 53 5.0 10.0 0.00 3.03 0.59 88 1006.5
20260506194337 53 51 6.0 13.0 0.00 3.03 0.59 88 1006.3
20260506193818 53 34 5.0 13.0 0.00 3.03 0.59 88 1006.2
20260506193319 54 74 6.0 11.0 0.00 3.03 0.59 87 1006.2
20260506192822 54 32 5.0 11.0 0.00 3.03 0.59 88 1006.1
20260506192325 54 51 4.0 12.0 0.00 3.03 0.59 88 1006.1
20260506191828 54 47 7.0 12.0 0.00 3.03 0.59 87 1006.1
20260506191329 54 18 5.0 10.0 0.00 3.03 0.59 88 1006.0
20260506190832 54 17 4.0 11.0 0.00 3.03 0.59 87 1006.0
20260506190331 54 47 6.0 11.0 0.00 3.03 0.59 87 1005.9
20260506185833 55 342 5.0 11.0 0.00 3.03 0.59 87 1005.9
20260506185351 55 68 3.0 11.0 0.00 3.03 0.59 87 1005.9
20260506184852 55 61 4.0 12.0 0.00 3.03 0.59 87 1005.8
20260506184313 55 16 7.0 12.0 0.00 3.03 0.59 87 1005.9
20260506183814 55 66 7.0 11.0 0.00 3.03 0.59 87 1005.8
20260506183317 55 50 5.0 11.0 0.00 3.03 0.59 87 1005.9
20260506182905 55 63 6.0 14.0 0.00 3.03 0.59 87 1005.8
20260506182323 55 78 9.0 14.0 0.00 3.03 0.59 87 1005.8
20260506181847 56 50 4.0 9.0 0.00 3.03 0.59 87 1005.8
20260506181331 56 44 4.0 11.0 0.00 3.03 0.59 86 1005.7
20260506180835 56 28 5.0 11.0 0.00 3.03 0.59 86 1005.7
20260506180316 56 22 5.0 9.0 0.00 3.03 0.59 86 1005.6
20260506175820 56 36 4.0 9.0 0.00 3.03 0.59 86 1005.6
20260506175322 56 22 4.0 13.0 0.00 3.03 0.59 86 1005.6
20260506174823 56 41 4.0 12.0 0.00 3.03 0.59 85 1005.5
20260506174325 57 34 6.0 12.0 0.00 3.03 0.59 85 1005.5
20260506173825 57 53 7.0 13.0 0.00 3.03 0.59 85 1005.5
20260506173325 57 26 4.0 12.0 0.00 3.03 0.59 85 1005.4
20260506172825 57 338 5.0 12.0 0.00 3.03 0.59 84 1005.3
20260506172327 57 35 5.0 11.0 0.00 3.03 0.59 83 1005.4
20260506171829 58 29 6.0 11.0 0.00 3.03 0.59 83 1005.3
20260506171331 58 17 6.0 12.0 0.00 3.03 0.59 83 1005.2
20260506170815 58 27 6.0 12.0 0.00 3.03 0.59 82 1005.1
20260506170319 58 45 5.0 11.0 0.00 3.03 0.59 82 1005.0
20260506165819 59 31 5.0 11.0 0.00 3.03 0.59 83 1004.9
20260506165324 59 56 4.0 9.0 0.00 3.03 0.59 83 1005.0
20260506164828 59 44 6.0 12.0 0.00 3.03 0.59 83 1005.0
20260506164331 59 49 6.0 13.0 0.00 3.03 0.59 83 1005.0
20260506163830 59 30 7.0 13.0 0.00 3.03 0.59 81 1005.0
20260506163330 60 40 6.0 12.0 0.00 3.03 0.59 81 1005.0
20260506162830 60 25 5.0 12.0 0.00 3.03 0.59 81 1005.0
20260506162331 60 21 5.0 9.0 0.00 3.03 0.59 80 1005.2
20260506161830 60 11 5.0 8.0 0.00 3.03 0.59 80 1005.2
20260506161330 60 28 5.0 9.0 0.00 3.03 0.59 80 1005.2
20260506160831 60 48 3.0 9.0 0.00 3.03 0.59 80 1005.2
20260506160313 60 28 4.0 11.0 0.00 3.03 0.59 80 1005.2
20260506155835 60 70 6.0 12.0 0.00 3.03 0.59 80 1005.1
20260506155316 60 35 5.0 13.0 0.00 3.03 0.59 80 1005.2
20260506154832 60 20 8.0 13.0 0.00 3.03 0.59 79 1005.2
20260506154314 61 3 7.0 13.0 0.00 3.03 0.59 79 1005.3
20260506153816 61 31 5.0 11.0 0.00 3.03 0.59 79 1005.4
20260506153319 62 49 6.0 11.0 0.00 3.03 0.59 80 1005.3
20260506152821 61 19 6.0 11.0 0.00 3.03 0.59 80 1005.4
20260506152324 61 48 6.0 12.0 0.00 3.03 0.59 80 1005.3
20260506151845 60 68 6.0 12.0 0.00 3.03 0.59 81 1005.3
20260506151347 61 55 7.0 11.0 0.00 3.03 0.59 80 1005.3
20260506150849 61 23 5.0 11.0 0.00 3.03 0.59 81 1005.2
20260506150332 61 43 6.0 13.0 0.00 3.03 0.59 80 1005.2
20260506145816 61 99 5.0 14.0 0.00 3.03 0.59 80 1005.2
20260506145318 62 357 6.0 14.0 0.00 3.03 0.59 79 1005.2
20260506144820 61 5 4.0 14.0 0.00 3.03 0.59 80 1005.2
20260506144341 62 341 7.0 14.0 0.00 3.03 0.59 79 1005.1
20260506143817 62 18 8.0 13.0 0.00 3.03 0.59 78 1005.1
20260506142818 62 13 5.0 13.0 0.00 3.03 0.59 79 1005.0
20260506142315 62 18 6.0 13.0 0.00 3.03 0.59 79 1005.1
20260506141815 63 19 4.0 10.0 0.00 3.03 0.59 78 1005.1
20260506141316 63 360 5.0 11.0 0.00 3.03 0.59 77 1005.3
20260506140817 63 53 5.0 11.0 0.00 3.03 0.59 77 1005.2
20260506140317 63 17 1.0 13.0 0.00 3.03 0.59 79 1005.3
20260506135836 63 19 9.0 13.0 0.00 3.03 0.59 77 1005.2
20260506135316 63 357 4.0 11.0 0.00 3.03 0.59 78 1005.2
20260506134819 62 296 4.0 11.0 0.00 3.03 0.59 78 1005.2
20260506134321 62 23 7.0 11.0 0.00 3.03 0.59 77 1005.3
20260506133821 62 285 4.0 11.0 0.00 3.03 0.59 77 1005.3
20260506133321 63 342 3.0 11.0 0.00 3.03 0.59 77 1005.3
20260506132821 63 19 5.0 10.0 0.00 3.03 0.59 76 1005.2
20260506132322 63 335 5.0 8.0 0.00 3.03 0.59 75 1005.2
20260506131824 64 9 3.0 7.0 0.00 3.03 0.59 77 1005.1
20260506131346 64 296 2.0 10.0 0.00 3.03 0.59 77 1005.2
20260506130847 64 341 5.0 12.0 0.00 3.03 0.59 76 1005.1
20260506130329 64 348 6.0 15.0 0.00 3.03 0.59 77 1005.0
20260506125831 65 12 6.0 15.0 0.00 3.03 0.59 74 1005.1
20260506125313 64 12 6.0 15.0 0.00 3.03 0.59 75 1005.2
20260506124813 64 319 9.0 15.0 0.00 3.03 0.59 76 1005.0
20260506124336 64 345 4.0 13.0 0.00 3.03 0.59 77 1005.0
20260506123817 64 2 6.0 14.0 0.00 3.03 0.59 76 1005.0
20260506123320 64 288 5.0 14.0 0.00 3.03 0.59 77 1004.9
20260506122823 64 334 4.0 9.0 0.00 3.03 0.59 77 1004.9